Year,Month,Day,Hour,Minute,Value (Times are PST for temperature in C)
2016,07,04,00,00,13.70
2016,07,04,00,01,13.70
2016,07,04,00,02,13.80
2016,07,04,00,03,13.80
2016,07,04,00,04,13.80
2016,07,04,00,05,13.80
2016,07,04,00,06,13.80
2016,07,04,00,07,13.80
2016,07,04,00,08,13.80
2016,07,04,00,09,13.80
2016,07,04,00,10,13.80
2016,07,04,00,11,13.80
2016,07,04,00,12,13.80
2016,07,04,00,13,13.80
2016,07,04,00,14,13.80
2016,07,04,00,15,13.80
2016,07,04,00,16,13.80
2016,07,04,00,17,13.80
2016,07,04,00,18,13.80
2016,07,04,00,19,13.80
2016,07,04,00,20,13.80
2016,07,04,00,21,13.80
2016,07,04,00,22,13.80
2016,07,04,00,23,13.80
2016,07,04,00,24,13.80
2016,07,04,00,25,13.80
2016,07,04,00,26,13.80
2016,07,04,00,27,13.80
2016,07,04,00,28,13.80
2016,07,04,00,29,13.80
2016,07,04,00,30,13.80
2016,07,04,00,31,13.80
2016,07,04,00,32,13.80
2016,07,04,00,33,13.80
2016,07,04,00,34,13.80
2016,07,04,00,35,13.80
2016,07,04,00,36,13.80
2016,07,04,00,37,13.80
2016,07,04,00,38,13.80
2016,07,04,00,39,13.80
2016,07,04,00,40,13.80
2016,07,04,00,41,13.90
2016,07,04,00,42,13.90
2016,07,04,00,43,13.90
2016,07,04,00,44,13.80
2016,07,04,00,45,13.80
2016,07,04,00,46,13.80
2016,07,04,00,47,13.80
2016,07,04,00,48,13.80
2016,07,04,00,49,13.80
2016,07,04,00,50,13.80
2016,07,04,00,51,13.90
2016,07,04,00,52,13.90
2016,07,04,00,53,13.80
2016,07,04,00,54,13.90
2016,07,04,00,55,13.90
2016,07,04,00,56,13.90
2016,07,04,00,57,13.90
2016,07,04,00,58,13.90
2016,07,04,00,59,13.90
2016,07,04,01,00,13.90
2016,07,04,01,01,13.90
2016,07,04,01,02,13.90
2016,07,04,01,03,13.90
2016,07,04,01,04,13.90
2016,07,04,01,05,13.90
2016,07,04,01,06,13.90
2016,07,04,01,07,13.90
2016,07,04,01,08,13.90
2016,07,04,01,09,13.90
2016,07,04,01,10,13.90
2016,07,04,01,11,13.90
2016,07,04,01,12,13.90
2016,07,04,01,13,13.90
2016,07,04,01,14,13.90
2016,07,04,01,15,13.90
2016,07,04,01,16,13.90
2016,07,04,01,17,13.90
2016,07,04,01,18,13.90
2016,07,04,01,19,13.90
2016,07,04,01,20,13.90
2016,07,04,01,21,13.90
2016,07,04,01,22,13.90
2016,07,04,01,23,13.80
2016,07,04,01,24,13.80
2016,07,04,01,25,13.80
2016,07,04,01,26,13.80
2016,07,04,01,27,13.80
2016,07,04,01,28,13.80
2016,07,04,01,29,13.80
2016,07,04,01,30,13.80
2016,07,04,01,31,13.80
2016,07,04,01,32,13.80
2016,07,04,01,33,13.70
2016,07,04,01,34,13.70
2016,07,04,01,35,13.70
2016,07,04,01,36,13.70
2016,07,04,01,37,13.70
2016,07,04,01,38,13.70
2016,07,04,01,39,13.70
2016,07,04,01,40,13.70
2016,07,04,01,41,13.60
2016,07,04,01,42,13.60
2016,07,04,01,43,13.60
2016,07,04,01,44,13.60
2016,07,04,01,45,13.60
2016,07,04,01,46,13.60
2016,07,04,01,47,13.50
2016,07,04,01,48,13.50
2016,07,04,01,49,13.50
2016,07,04,01,50,13.50
2016,07,04,01,51,13.50
2016,07,04,01,52,13.50
2016,07,04,01,53,13.50
2016,07,04,01,54,13.40
2016,07,04,01,55,13.40
2016,07,04,01,56,13.40
2016,07,04,01,57,13.40
2016,07,04,01,58,13.40
2016,07,04,01,59,13.40
2016,07,04,02,00,13.40
2016,07,04,02,01,13.40
2016,07,04,02,02,13.40
2016,07,04,02,03,13.50
2016,07,04,02,04,13.50
2016,07,04,02,05,13.50
2016,07,04,02,06,13.50
2016,07,04,02,07,13.50
2016,07,04,02,08,13.50
2016,07,04,02,09,13.50
2016,07,04,02,10,13.50
2016,07,04,02,11,13.50
2016,07,04,02,12,13.50
2016,07,04,02,13,13.50
2016,07,04,02,14,13.50
2016,07,04,02,15,13.50
2016,07,04,02,16,13.50
2016,07,04,02,17,13.50
2016,07,04,02,18,13.50
2016,07,04,02,19,13.60
2016,07,04,02,20,13.60
2016,07,04,02,21,13.60
2016,07,04,02,22,13.60
2016,07,04,02,23,13.60
2016,07,04,02,24,13.60
2016,07,04,02,25,13.60
2016,07,04,02,26,13.60
2016,07,04,02,27,13.60
2016,07,04,02,28,13.60
2016,07,04,02,29,13.60
2016,07,04,02,30,13.60
2016,07,04,02,31,13.60
2016,07,04,02,32,13.60
2016,07,04,02,33,13.60
2016,07,04,02,34,13.60
2016,07,04,02,35,13.60
2016,07,04,02,36,13.60
2016,07,04,02,37,13.60
2016,07,04,02,38,13.60
2016,07,04,02,39,13.60
2016,07,04,02,40,13.60
2016,07,04,02,41,13.60
2016,07,04,02,42,13.60
2016,07,04,02,43,13.60
2016,07,04,02,44,13.60
2016,07,04,02,45,13.60
2016,07,04,02,46,13.60
2016,07,04,02,47,13.60
2016,07,04,02,48,13.60
2016,07,04,02,49,13.60
2016,07,04,02,50,13.60
2016,07,04,02,51,13.60
2016,07,04,02,52,13.60
2016,07,04,02,53,13.60
2016,07,04,02,54,13.60
2016,07,04,02,55,13.50
2016,07,04,02,56,13.50
2016,07,04,02,57,13.50
2016,07,04,02,58,13.50
2016,07,04,02,59,13.40
2016,07,04,03,00,13.40
2016,07,04,03,01,13.40
2016,07,04,03,02,13.40
2016,07,04,03,03,13.40
2016,07,04,03,04,13.40
2016,07,04,03,05,13.40
2016,07,04,03,06,13.40
2016,07,04,03,07,13.40
2016,07,04,03,08,13.40
2016,07,04,03,09,13.40
2016,07,04,03,10,13.40
2016,07,04,03,11,13.40
2016,07,04,03,12,13.40
2016,07,04,03,13,13.40
2016,07,04,03,14,13.40
2016,07,04,03,15,13.40
2016,07,04,03,16,13.40
2016,07,04,03,17,13.40
2016,07,04,03,18,13.40
2016,07,04,03,19,13.40
2016,07,04,03,20,13.40
2016,07,04,03,21,13.40
2016,07,04,03,22,13.40
2016,07,04,03,23,13.40
2016,07,04,03,24,13.40
2016,07,04,03,25,13.40
2016,07,04,03,26,13.40
2016,07,04,03,27,13.40
2016,07,04,03,28,13.40
2016,07,04,03,29,13.40
2016,07,04,03,30,13.40
2016,07,04,03,31,13.40
2016,07,04,03,32,13.40
2016,07,04,03,33,13.40
2016,07,04,03,34,13.40
2016,07,04,03,35,13.40
2016,07,04,03,36,13.40
2016,07,04,03,37,13.40
2016,07,04,03,38,13.40
2016,07,04,03,39,13.40
2016,07,04,03,40,13.40
2016,07,04,03,41,13.40
2016,07,04,03,42,13.40
2016,07,04,03,43,13.40
2016,07,04,03,44,13.40
2016,07,04,03,45,13.40
2016,07,04,03,46,13.40
2016,07,04,03,47,13.40
2016,07,04,03,48,13.40
2016,07,04,03,49,13.40
2016,07,04,03,50,13.40
2016,07,04,03,51,13.40
2016,07,04,03,52,13.40
2016,07,04,03,53,13.40
2016,07,04,03,54,13.40
2016,07,04,03,55,13.40
2016,07,04,03,56,13.40
2016,07,04,03,57,13.40
2016,07,04,03,58,13.40
2016,07,04,03,59,13.40
2016,07,04,04,00,13.40
2016,07,04,04,01,13.40
2016,07,04,04,02,13.40
2016,07,04,04,03,13.30
2016,07,04,04,04,13.30
2016,07,04,04,05,13.30
2016,07,04,04,06,13.30
2016,07,04,04,07,13.30
2016,07,04,04,08,13.30
2016,07,04,04,09,13.30
2016,07,04,04,10,13.20
2016,07,04,04,11,13.20
2016,07,04,04,12,13.20
2016,07,04,04,13,13.20
2016,07,04,04,14,13.20
2016,07,04,04,15,13.20
2016,07,04,04,16,13.20
2016,07,04,04,17,13.20
2016,07,04,04,18,13.20
2016,07,04,04,19,13.20
2016,07,04,04,20,13.20
2016,07,04,04,21,13.20
2016,07,04,04,22,13.20
2016,07,04,04,23,13.20
2016,07,04,04,24,13.20
2016,07,04,04,25,13.20
2016,07,04,04,26,13.20
2016,07,04,04,27,13.20
2016,07,04,04,28,13.20
2016,07,04,04,29,13.20
2016,07,04,04,30,13.20
2016,07,04,04,31,13.20
2016,07,04,04,32,13.20
2016,07,04,04,33,13.20
2016,07,04,04,34,13.20
2016,07,04,04,35,13.20
2016,07,04,04,36,13.20
2016,07,04,04,37,13.20
2016,07,04,04,38,13.20
2016,07,04,04,39,13.20
2016,07,04,04,40,13.20
2016,07,04,04,41,13.20
2016,07,04,04,42,13.20
2016,07,04,04,43,13.20
2016,07,04,04,44,13.20
2016,07,04,04,45,13.20
2016,07,04,04,46,13.20
2016,07,04,04,47,13.20
2016,07,04,04,48,13.20
2016,07,04,04,49,13.20
2016,07,04,04,50,13.20
2016,07,04,04,51,13.20
2016,07,04,04,52,13.20
2016,07,04,04,53,13.20
2016,07,04,04,54,13.20
2016,07,04,04,55,13.20
2016,07,04,04,56,13.20
2016,07,04,04,57,13.10
2016,07,04,04,58,13.20
2016,07,04,04,59,13.20
2016,07,04,05,00,13.20
2016,07,04,05,01,13.20
2016,07,04,05,02,13.20
2016,07,04,05,03,13.20
2016,07,04,05,04,13.20
2016,07,04,05,05,13.20
2016,07,04,05,06,13.20
2016,07,04,05,07,13.20
2016,07,04,05,08,13.20
2016,07,04,05,09,13.20
2016,07,04,05,10,13.20
2016,07,04,05,11,13.20
2016,07,04,05,12,13.20
2016,07,04,05,13,13.20
2016,07,04,05,14,13.20
2016,07,04,05,15,13.30
2016,07,04,05,16,13.30
2016,07,04,05,17,13.30
2016,07,04,05,18,13.30
2016,07,04,05,19,13.30
2016,07,04,05,20,13.30
2016,07,04,05,21,13.30
2016,07,04,05,22,13.30
2016,07,04,05,23,13.30
2016,07,04,05,24,13.30
2016,07,04,05,25,13.30
2016,07,04,05,26,13.30
2016,07,04,05,27,13.40
2016,07,04,05,28,13.40
2016,07,04,05,29,13.40
2016,07,04,05,30,13.40
2016,07,04,05,31,13.40
2016,07,04,05,32,13.40
2016,07,04,05,33,13.40
2016,07,04,05,34,13.40
2016,07,04,05,35,13.50
2016,07,04,05,36,13.50
2016,07,04,05,37,13.50
2016,07,04,05,38,13.50
2016,07,04,05,39,13.50
2016,07,04,05,40,13.50
2016,07,04,05,41,13.60
2016,07,04,05,42,13.60
2016,07,04,05,43,13.60
2016,07,04,05,44,13.60
2016,07,04,05,45,13.60
2016,07,04,05,46,13.60
2016,07,04,05,47,13.60
2016,07,04,05,48,13.60
2016,07,04,05,49,13.60
2016,07,04,05,50,13.60
2016,07,04,05,51,13.60
2016,07,04,05,52,13.60
2016,07,04,05,53,13.50
2016,07,04,05,54,13.50
2016,07,04,05,55,13.50
2016,07,04,05,56,13.50
2016,07,04,05,57,13.50
2016,07,04,05,58,13.50
2016,07,04,05,59,13.40
2016,07,04,06,00,13.40
2016,07,04,06,01,13.40
2016,07,04,06,02,13.40
2016,07,04,06,03,13.40
2016,07,04,06,04,13.40
2016,07,04,06,05,13.40
2016,07,04,06,06,13.40
2016,07,04,06,07,13.40
2016,07,04,06,08,13.40
2016,07,04,06,09,13.40
2016,07,04,06,10,13.40
2016,07,04,06,11,13.40
2016,07,04,06,12,13.40
2016,07,04,06,13,13.50
2016,07,04,06,14,13.50
2016,07,04,06,15,13.50
2016,07,04,06,16,13.50
2016,07,04,06,17,13.60
2016,07,04,06,18,13.60
2016,07,04,06,19,13.60
2016,07,04,06,20,13.60
2016,07,04,06,21,13.60
2016,07,04,06,22,13.60
2016,07,04,06,23,13.60
2016,07,04,06,24,13.60
2016,07,04,06,25,13.70
2016,07,04,06,26,13.70
2016,07,04,06,27,13.70
2016,07,04,06,28,13.70
2016,07,04,06,29,13.70
2016,07,04,06,30,13.70
2016,07,04,06,31,13.70
2016,07,04,06,32,13.70
2016,07,04,06,33,13.70
2016,07,04,06,34,13.70
2016,07,04,06,35,13.70
2016,07,04,06,36,13.70
2016,07,04,06,37,13.70
2016,07,04,06,38,13.70
2016,07,04,06,39,13.70
2016,07,04,06,40,13.70
2016,07,04,06,41,13.80
2016,07,04,06,42,13.80
2016,07,04,06,43,13.80
2016,07,04,06,44,13.80
2016,07,04,06,45,13.80
2016,07,04,06,46,13.80
2016,07,04,06,47,13.80
2016,07,04,06,48,13.80
2016,07,04,06,49,13.80
2016,07,04,06,50,13.80
2016,07,04,06,51,13.80
2016,07,04,06,52,13.80
2016,07,04,06,53,13.80
2016,07,04,06,54,13.80
2016,07,04,06,55,13.80
2016,07,04,06,56,13.80
2016,07,04,06,57,13.80
2016,07,04,06,58,13.80
2016,07,04,06,59,13.80
2016,07,04,07,00,13.80
2016,07,04,07,01,13.80
2016,07,04,07,02,13.80
2016,07,04,07,03,13.80
2016,07,04,07,04,13.80
2016,07,04,07,05,13.80
2016,07,04,07,06,13.80
2016,07,04,07,07,13.80
2016,07,04,07,08,13.80
2016,07,04,07,09,13.80
2016,07,04,07,10,13.80
2016,07,04,07,11,13.80
2016,07,04,07,12,13.80
2016,07,04,07,13,13.80
2016,07,04,07,14,13.80
2016,07,04,07,15,13.80
2016,07,04,07,16,13.80
2016,07,04,07,17,13.80
2016,07,04,07,18,13.80
2016,07,04,07,19,13.80
2016,07,04,07,20,13.80
2016,07,04,07,21,13.80
2016,07,04,07,22,13.80
2016,07,04,07,23,13.80
2016,07,04,07,24,13.80
2016,07,04,07,25,13.80
2016,07,04,07,26,13.80
2016,07,04,07,27,13.80
2016,07,04,07,28,13.80
2016,07,04,07,29,13.80
2016,07,04,07,30,13.90
2016,07,04,07,31,13.90
2016,07,04,07,32,13.90
2016,07,04,07,33,13.90
2016,07,04,07,34,13.90
2016,07,04,07,35,14.00
2016,07,04,07,36,14.00
2016,07,04,07,37,14.00
2016,07,04,07,38,14.00
2016,07,04,07,39,14.00
2016,07,04,07,40,14.00
2016,07,04,07,41,14.00
2016,07,04,07,42,14.00
2016,07,04,07,43,14.00
2016,07,04,07,44,14.10
2016,07,04,07,45,14.10
2016,07,04,07,46,14.10
2016,07,04,07,47,14.10
2016,07,04,07,48,14.10
2016,07,04,07,49,14.10
2016,07,04,07,50,14.00
2016,07,04,07,51,14.00
2016,07,04,07,52,14.00
2016,07,04,07,53,14.00
2016,07,04,07,54,14.00
2016,07,04,07,55,14.10
2016,07,04,07,56,14.10
2016,07,04,07,57,14.10
2016,07,04,07,58,14.10
2016,07,04,07,59,14.20
2016,07,04,08,00,14.20
2016,07,04,08,01,14.20
2016,07,04,08,02,14.30
2016,07,04,08,03,14.30
2016,07,04,08,04,14.30
2016,07,04,08,05,14.30
2016,07,04,08,06,14.30
2016,07,04,08,07,14.30
2016,07,04,08,08,14.30
2016,07,04,08,09,14.30
2016,07,04,08,10,14.30
2016,07,04,08,11,14.30
2016,07,04,08,12,14.30
2016,07,04,08,13,14.40
2016,07,04,08,14,14.40
2016,07,04,08,15,14.40
2016,07,04,08,16,14.40
2016,07,04,08,17,14.40
2016,07,04,08,18,14.50
2016,07,04,08,19,14.50
2016,07,04,08,20,14.60
2016,07,04,08,21,14.60
2016,07,04,08,22,14.60
2016,07,04,08,23,14.60
2016,07,04,08,24,14.60
2016,07,04,08,25,14.70
2016,07,04,08,26,14.70
2016,07,04,08,27,14.70
2016,07,04,08,28,14.80
2016,07,04,08,29,14.80
2016,07,04,08,30,14.90
2016,07,04,08,31,14.90
2016,07,04,08,32,15.00
2016,07,04,08,33,15.00
2016,07,04,08,34,15.00
2016,07,04,08,35,15.00
2016,07,04,08,36,15.00
2016,07,04,08,37,15.10
2016,07,04,08,38,15.10
2016,07,04,08,39,15.10
2016,07,04,08,40,15.20
2016,07,04,08,41,15.20
2016,07,04,08,42,15.20
2016,07,04,08,43,15.30
2016,07,04,08,44,15.30
2016,07,04,08,45,15.30
2016,07,04,08,46,15.40
2016,07,04,08,47,15.40
2016,07,04,08,48,15.40
2016,07,04,08,49,15.40
2016,07,04,08,50,15.40
2016,07,04,08,51,15.40
2016,07,04,08,52,15.40
2016,07,04,08,53,15.40
2016,07,04,08,54,15.40
2016,07,04,08,55,15.40
2016,07,04,08,56,15.40
2016,07,04,08,57,15.40
2016,07,04,08,58,15.30
2016,07,04,08,59,15.30
2016,07,04,09,00,15.30
2016,07,04,09,01,15.30
2016,07,04,09,02,15.30
2016,07,04,09,03,15.30
2016,07,04,09,04,15.20
2016,07,04,09,05,15.20
2016,07,04,09,06,15.20
2016,07,04,09,07,15.20
2016,07,04,09,08,15.20
2016,07,04,09,09,15.20
2016,07,04,09,10,15.20
2016,07,04,09,11,15.20
2016,07,04,09,12,15.20
2016,07,04,09,13,15.20
2016,07,04,09,14,15.10
2016,07,04,09,15,15.10
2016,07,04,09,16,15.10
2016,07,04,09,17,15.10
2016,07,04,09,18,15.10
2016,07,04,09,19,15.00
2016,07,04,09,20,15.00
2016,07,04,09,21,15.00
2016,07,04,09,22,14.90
2016,07,04,09,23,14.90
2016,07,04,09,24,14.90
2016,07,04,09,25,14.90
2016,07,04,09,26,14.80
2016,07,04,09,27,14.80
2016,07,04,09,28,14.80
2016,07,04,09,29,14.80
2016,07,04,09,30,14.80
2016,07,04,09,31,14.70
2016,07,04,09,32,14.70
2016,07,04,09,33,14.70
2016,07,04,09,34,14.70
2016,07,04,09,35,14.70
2016,07,04,09,36,14.70
2016,07,04,09,37,14.70
2016,07,04,09,38,14.70
2016,07,04,09,39,14.80
2016,07,04,09,40,14.70
2016,07,04,09,41,14.70
2016,07,04,09,42,14.80
2016,07,04,09,43,14.80
2016,07,04,09,44,14.80
2016,07,04,09,45,14.80
2016,07,04,09,46,14.80
2016,07,04,09,47,14.80
2016,07,04,09,48,14.90
2016,07,04,09,49,14.90
2016,07,04,09,50,14.90
2016,07,04,09,51,14.90
2016,07,04,09,52,14.90
2016,07,04,09,53,14.90
2016,07,04,09,54,14.90
2016,07,04,09,55,14.90
2016,07,04,09,56,14.90
2016,07,04,09,57,14.90
2016,07,04,09,58,15.00
2016,07,04,09,59,15.00
2016,07,04,10,00,15.00
2016,07,04,10,01,15.00
2016,07,04,10,02,15.00
2016,07,04,10,03,15.00
2016,07,04,10,04,15.00
2016,07,04,10,05,15.00
2016,07,04,10,06,15.00
2016,07,04,10,07,14.90
2016,07,04,10,08,14.90
2016,07,04,10,09,14.90
2016,07,04,10,10,14.90
2016,07,04,10,11,14.90
2016,07,04,10,12,14.90
2016,07,04,10,13,14.90
2016,07,04,10,14,14.80
2016,07,04,10,15,14.80
2016,07,04,10,16,14.80
2016,07,04,10,17,14.80
2016,07,04,10,18,14.80
2016,07,04,10,19,14.80
2016,07,04,10,20,14.80
2016,07,04,10,21,14.80
2016,07,04,10,22,14.80
2016,07,04,10,23,14.80
2016,07,04,10,24,14.90
2016,07,04,10,25,14.90
2016,07,04,10,26,14.90
2016,07,04,10,27,14.90
2016,07,04,10,28,14.90
2016,07,04,10,29,14.90
2016,07,04,10,30,14.90
2016,07,04,10,31,14.90
2016,07,04,10,32,14.90
2016,07,04,10,33,14.90
2016,07,04,10,34,14.90
2016,07,04,10,35,14.80
2016,07,04,10,36,14.80
2016,07,04,10,37,14.80
2016,07,04,10,38,14.80
2016,07,04,10,39,14.80
2016,07,04,10,40,14.80
2016,07,04,10,41,14.80
2016,07,04,10,42,14.70
2016,07,04,10,43,14.70
2016,07,04,10,44,14.70
2016,07,04,10,45,14.70
2016,07,04,10,46,14.70
2016,07,04,10,47,14.70
2016,07,04,10,48,14.70
2016,07,04,10,49,14.70
2016,07,04,10,50,14.70
2016,07,04,10,51,14.80
2016,07,04,10,52,14.80
2016,07,04,10,53,14.80
2016,07,04,10,54,14.80
2016,07,04,10,55,14.90
2016,07,04,10,56,14.90
2016,07,04,10,57,15.00
2016,07,04,10,58,15.00
2016,07,04,10,59,15.10
2016,07,04,11,00,15.20
2016,07,04,11,01,15.20
2016,07,04,11,02,15.20
2016,07,04,11,03,15.20
2016,07,04,11,04,15.20
2016,07,04,11,05,15.20
2016,07,04,11,06,15.20
2016,07,04,11,07,15.20
2016,07,04,11,08,15.30
2016,07,04,11,09,15.30
2016,07,04,11,10,15.30
2016,07,04,11,11,15.30
2016,07,04,11,12,15.30
2016,07,04,11,13,15.30
2016,07,04,11,14,15.30
2016,07,04,11,15,15.30
2016,07,04,11,16,15.30
2016,07,04,11,17,15.30
2016,07,04,11,18,15.40
2016,07,04,11,19,15.40
2016,07,04,11,20,15.40
2016,07,04,11,21,15.40
2016,07,04,11,22,15.40
2016,07,04,11,23,15.40
2016,07,04,11,24,15.40
2016,07,04,11,25,15.40
2016,07,04,11,26,15.40
2016,07,04,11,27,15.40
2016,07,04,11,28,15.30
2016,07,04,11,29,15.30
2016,07,04,11,30,15.40
2016,07,04,11,31,15.40
2016,07,04,11,32,15.40
2016,07,04,11,33,15.50
2016,07,04,11,34,15.60
2016,07,04,11,35,15.60
2016,07,04,11,36,15.60
2016,07,04,11,37,15.70
2016,07,04,11,38,15.70
2016,07,04,11,39,15.70
2016,07,04,11,40,15.70
2016,07,04,11,41,15.70
2016,07,04,11,42,15.70
2016,07,04,11,43,15.70
2016,07,04,11,44,15.70
2016,07,04,11,45,15.80
2016,07,04,11,46,15.80
2016,07,04,11,47,15.80
2016,07,04,11,48,15.90
2016,07,04,11,49,15.90
2016,07,04,11,50,16.00
2016,07,04,11,51,16.00
2016,07,04,11,52,16.00
2016,07,04,11,53,16.10
2016,07,04,11,54,16.20
2016,07,04,11,55,16.20
2016,07,04,11,56,16.30
2016,07,04,11,57,16.20
2016,07,04,11,58,16.20
2016,07,04,11,59,16.20
2016,07,04,12,00,16.20
2016,07,04,12,01,16.30
2016,07,04,12,02,16.20
2016,07,04,12,03,16.20
2016,07,04,12,04,16.30
2016,07,04,12,05,16.30
2016,07,04,12,06,16.40
2016,07,04,12,07,16.50
2016,07,04,12,08,16.50
2016,07,04,12,09,16.60
2016,07,04,12,10,16.60
2016,07,04,12,11,16.60
2016,07,04,12,12,16.60
2016,07,04,12,13,16.60
2016,07,04,12,14,16.70
2016,07,04,12,15,16.70
2016,07,04,12,16,16.80
2016,07,04,12,17,16.80
2016,07,04,12,18,16.80
2016,07,04,12,19,16.80
2016,07,04,12,20,16.80
2016,07,04,12,21,16.80
2016,07,04,12,22,16.90
2016,07,04,12,23,16.90
2016,07,04,12,24,17.00
2016,07,04,12,25,17.00
2016,07,04,12,26,17.10
2016,07,04,12,27,17.10
2016,07,04,12,28,17.10
2016,07,04,12,29,17.10
2016,07,04,12,30,17.10
2016,07,04,12,31,17.10
2016,07,04,12,32,17.10
2016,07,04,12,33,17.10
2016,07,04,12,34,17.10
2016,07,04,12,35,17.10
2016,07,04,12,36,17.10
2016,07,04,12,37,17.10
2016,07,04,12,38,17.10
2016,07,04,12,39,17.10
2016,07,04,12,40,17.10
2016,07,04,12,41,17.20
2016,07,04,12,42,17.30
2016,07,04,12,43,17.30
2016,07,04,12,44,17.30
2016,07,04,12,45,17.40
2016,07,04,12,46,17.40
2016,07,04,12,47,17.40
2016,07,04,12,48,17.50
2016,07,04,12,49,17.50
2016,07,04,12,50,17.60
2016,07,04,12,51,17.60
2016,07,04,12,52,17.70
2016,07,04,12,53,17.70
2016,07,04,12,54,17.80
2016,07,04,12,55,17.80
2016,07,04,12,56,17.80
2016,07,04,12,57,17.80
2016,07,04,12,58,17.80
2016,07,04,12,59,17.80
2016,07,04,13,00,17.80
2016,07,04,13,01,17.90
2016,07,04,13,02,17.80
2016,07,04,13,03,17.80
2016,07,04,13,04,17.90
2016,07,04,13,05,17.90
2016,07,04,13,06,17.90
2016,07,04,13,07,17.90
2016,07,04,13,08,17.90
2016,07,04,13,09,17.90
2016,07,04,13,10,18.00
2016,07,04,13,11,18.00
2016,07,04,13,12,18.10
2016,07,04,13,13,18.10
2016,07,04,13,14,18.10
2016,07,04,13,15,18.10
2016,07,04,13,16,18.10
2016,07,04,13,17,18.20
2016,07,04,13,18,18.20
2016,07,04,13,19,18.20
2016,07,04,13,20,18.20
2016,07,04,13,21,18.20
2016,07,04,13,22,18.30
2016,07,04,13,23,18.30
2016,07,04,13,24,18.30
2016,07,04,13,25,18.30
2016,07,04,13,26,18.20
2016,07,04,13,27,18.10
2016,07,04,13,28,18.10
2016,07,04,13,29,18.10
2016,07,04,13,30,18.20
2016,07,04,13,31,18.20
2016,07,04,13,32,18.30
2016,07,04,13,33,18.30
2016,07,04,13,34,18.30
2016,07,04,13,35,18.30
2016,07,04,13,36,18.30
2016,07,04,13,37,18.30
2016,07,04,13,38,18.30
2016,07,04,13,39,18.40
2016,07,04,13,40,18.40
2016,07,04,13,41,18.40
2016,07,04,13,42,18.40
2016,07,04,13,43,18.40
2016,07,04,13,44,18.40
2016,07,04,13,45,18.50
2016,07,04,13,46,18.60
2016,07,04,13,47,18.60
2016,07,04,13,48,18.70
2016,07,04,13,49,18.70
2016,07,04,13,50,18.70
2016,07,04,13,51,18.80
2016,07,04,13,52,18.80
2016,07,04,13,53,18.80
2016,07,04,13,54,18.80
2016,07,04,13,55,18.80
2016,07,04,13,56,18.80
2016,07,04,13,57,18.80
2016,07,04,13,58,18.80
2016,07,04,13,59,18.80
2016,07,04,14,00,18.80
2016,07,04,14,01,18.80
2016,07,04,14,02,18.80
2016,07,04,14,03,18.80
2016,07,04,14,04,18.70
2016,07,04,14,05,18.70
2016,07,04,14,06,18.80
2016,07,04,14,07,18.80
2016,07,04,14,08,18.80
2016,07,04,14,09,18.80
2016,07,04,14,10,18.80
2016,07,04,14,11,18.80
2016,07,04,14,12,18.80
2016,07,04,14,13,18.70
2016,07,04,14,14,18.60
2016,07,04,14,15,18.60
2016,07,04,14,16,18.60
2016,07,04,14,17,18.50
2016,07,04,14,18,18.50
2016,07,04,14,19,18.50
2016,07,04,14,20,18.40
2016,07,04,14,21,18.40
2016,07,04,14,22,18.40
2016,07,04,14,23,18.40
2016,07,04,14,24,18.40
2016,07,04,14,25,18.40
2016,07,04,14,26,18.30
2016,07,04,14,27,18.30
2016,07,04,14,28,18.20
2016,07,04,14,29,18.20
2016,07,04,14,30,18.10
2016,07,04,14,31,18.10
2016,07,04,14,32,18.00
2016,07,04,14,33,18.00
2016,07,04,14,34,18.00
2016,07,04,14,35,18.00
2016,07,04,14,36,18.10
2016,07,04,14,37,18.10
2016,07,04,14,38,18.00
2016,07,04,14,39,18.00
2016,07,04,14,40,17.90
2016,07,04,14,41,17.80
2016,07,04,14,42,17.80
2016,07,04,14,43,17.70
2016,07,04,14,44,17.70
2016,07,04,14,45,17.60
2016,07,04,14,46,17.60
2016,07,04,14,47,17.50
2016,07,04,14,48,17.40
2016,07,04,14,49,17.40
2016,07,04,14,50,17.40
2016,07,04,14,51,17.50
2016,07,04,14,52,17.60
2016,07,04,14,53,17.60
2016,07,04,14,54,17.60
2016,07,04,14,55,17.60
2016,07,04,14,56,17.60
2016,07,04,14,57,17.60
2016,07,04,14,58,17.50
2016,07,04,14,59,17.50
2016,07,04,15,00,17.50
2016,07,04,15,01,17.50
2016,07,04,15,02,17.50
2016,07,04,15,03,17.50
2016,07,04,15,04,17.50
2016,07,04,15,05,17.40
2016,07,04,15,06,17.40
2016,07,04,15,07,17.40
2016,07,04,15,08,17.30
2016,07,04,15,09,17.30
2016,07,04,15,10,17.20
2016,07,04,15,11,17.20
2016,07,04,15,12,17.20
2016,07,04,15,13,17.20
2016,07,04,15,14,17.20
2016,07,04,15,15,17.20
2016,07,04,15,16,17.20
2016,07,04,15,17,17.20
2016,07,04,15,18,17.20
2016,07,04,15,19,17.20
2016,07,04,15,20,17.20
2016,07,04,15,21,17.20
2016,07,04,15,22,17.10
2016,07,04,15,23,17.10
2016,07,04,15,24,17.10
2016,07,04,15,25,17.10
2016,07,04,15,26,17.10
2016,07,04,15,27,17.00
2016,07,04,15,28,17.10
2016,07,04,15,29,17.10
2016,07,04,15,30,17.10
2016,07,04,15,31,17.10
2016,07,04,15,32,17.10
2016,07,04,15,33,17.10
2016,07,04,15,34,17.10
2016,07,04,15,35,17.10
2016,07,04,15,36,17.10
2016,07,04,15,37,17.10
2016,07,04,15,38,17.10
2016,07,04,15,39,17.00
2016,07,04,15,40,17.00
2016,07,04,15,41,17.00
2016,07,04,15,42,17.00
2016,07,04,15,43,17.00
2016,07,04,15,44,17.00
2016,07,04,15,45,17.00
2016,07,04,15,46,17.00
2016,07,04,15,47,17.00
2016,07,04,15,48,17.00
2016,07,04,15,49,17.00
2016,07,04,15,50,17.00
2016,07,04,15,51,17.10
2016,07,04,15,52,17.10
2016,07,04,15,53,17.10
2016,07,04,15,54,17.10
2016,07,04,15,55,17.10
2016,07,04,15,56,17.10
2016,07,04,15,57,17.10
2016,07,04,15,58,17.10
2016,07,04,15,59,17.10
2016,07,04,16,00,17.10
2016,07,04,16,01,17.20
2016,07,04,16,02,17.20
2016,07,04,16,03,17.20
2016,07,04,16,04,17.20
2016,07,04,16,05,17.20
2016,07,04,16,06,17.30
2016,07,04,16,07,17.30
2016,07,04,16,08,17.30
2016,07,04,16,09,17.30
2016,07,04,16,10,17.30
2016,07,04,16,11,17.30
2016,07,04,16,12,17.30
2016,07,04,16,13,17.30
2016,07,04,16,14,17.30
2016,07,04,16,15,17.30
2016,07,04,16,16,17.30
2016,07,04,16,17,17.30
2016,07,04,16,18,17.30
2016,07,04,16,19,17.30
2016,07,04,16,20,17.30
2016,07,04,16,21,17.30
2016,07,04,16,22,17.30
2016,07,04,16,23,17.40
2016,07,04,16,24,17.40
2016,07,04,16,25,17.40
2016,07,04,16,26,17.40
2016,07,04,16,27,17.50
2016,07,04,16,28,17.50
2016,07,04,16,29,17.50
2016,07,04,16,30,17.60
2016,07,04,16,31,17.60
2016,07,04,16,32,17.60
2016,07,04,16,33,17.60
2016,07,04,16,34,17.60
2016,07,04,16,35,17.60
2016,07,04,16,36,17.60
2016,07,04,16,37,17.60
2016,07,04,16,38,17.60
2016,07,04,16,39,17.60
2016,07,04,16,40,17.60
2016,07,04,16,41,17.60
2016,07,04,16,42,17.60
2016,07,04,16,43,17.60
2016,07,04,16,44,17.60
2016,07,04,16,45,17.60
2016,07,04,16,46,17.60
2016,07,04,16,47,17.60
2016,07,04,16,48,17.60
2016,07,04,16,49,17.60
2016,07,04,16,50,17.70
2016,07,04,16,51,17.60
2016,07,04,16,52,17.70
2016,07,04,16,53,17.70
2016,07,04,16,54,17.70
2016,07,04,16,55,17.70
2016,07,04,16,56,17.60
2016,07,04,16,57,17.60
2016,07,04,16,58,17.60
2016,07,04,16,59,17.60
2016,07,04,17,00,17.60
2016,07,04,17,01,17.60
2016,07,04,17,02,17.60
2016,07,04,17,03,17.60
2016,07,04,17,04,17.60
2016,07,04,17,05,17.60
2016,07,04,17,06,17.60
2016,07,04,17,07,17.70
2016,07,04,17,08,17.70
2016,07,04,17,09,17.70
2016,07,04,17,10,17.70
2016,07,04,17,11,17.70
2016,07,04,17,12,17.80
2016,07,04,17,13,17.80
2016,07,04,17,14,17.70
2016,07,04,17,15,17.70
2016,07,04,17,16,17.70
2016,07,04,17,17,17.70
2016,07,04,17,18,17.70
2016,07,04,17,19,17.60